Hourly Weather Bolshie Selischi

Today, 20 June, Sunday

Time Temperature Precipitation Wind Pressure Humidity
00:00 +18°C° 0 mm 2 mps 754 mmHg 85%
01:00 +17°C° 0 mm 2 mps 754 mmHg 87%
02:00 +17°C° 0 mm 2 mps 755 mmHg 89%
03:00 +18°C° 0 mm 1 mps 754 mmHg 87%
04:00 +19°C° 0 mm 1 mps 754 mmHg 85%
05:00 +20°C° 0 mm 1 mps 754 mmHg 83%
06:00 +22°C° 0 mm 1 mps 754 mmHg 76%
07:00 +24°C° 0 mm 1 mps 754 mmHg 69%
08:00 +26°C° 0 mm 1 mps 754 mmHg 62%
09:00 +27°C° 0 mm 2 mps 754 mmHg 57%
10:00 +28°C° 0 mm 2 mps 754 mmHg 53%
11:00 +30°C° 0 mm 2 mps 754 mmHg 48%
12:00 +30°C° 0 mm 2 mps 754 mmHg 47%
13:00 +31°C° 0 mm 2 mps 753 mmHg 45%
14:00 +31°C° 0 mm 2 mps 753 mmHg 43%
15:00 +31°C° 0 mm 2 mps 753 mmHg 47%
16:00 +30°C° 0 mm 2 mps 753 mmHg 50%
17:00 +30°C° 0 mm 2 mps 753 mmHg 53%
18:00 +28°C° 0 mm 2 mps 752 mmHg 60%
19:00 +26°C° 0 mm 2 mps 752 mmHg 67%
20:00 +24°C° 0 mm 1 mps 752 mmHg 75%
21:00 +23°C° 0 mm 2 mps 752 mmHg 77%
22:00 +23°C° 0 mm 2 mps 752 mmHg 80%
23:00 +21°C° 0 mm 2 mps 752 mmHg 83%

Tomorrow, 21 June, Monday

Time Temperature Precipitation Wind Pressure Humidity
00:00 +20°C° 0 mm 2 mps 752 mmHg 85%
01:00 +20°C° 0 mm 2 mps 753 mmHg 87%
02:00 +19°C° 0 mm 2 mps 753 mmHg 89%
03:00 +20°C° 0 mm 2 mps 753 mmHg 87%
04:00 +20°C° 0 mm 2 mps 753 mmHg 85%
05:00 +22°C° 0 mm 1 mps 753 mmHg 84%
06:00 +23°C° 0 mm 2 mps 753 mmHg 77%
07:00 +25°C° 0 mm 2 mps 753 mmHg 71%
08:00 +26°C° 0 mm 2 mps 753 mmHg 65%
09:00 +27°C° 0 mm 2 mps 753 mmHg 60%
10:00 +29°C° 0 mm 2 mps 753 mmHg 56%
11:00 +30°C° 0 mm 2 mps 753 mmHg 52%
12:00 +30°C° 0 mm 2 mps 753 mmHg 49%
13:00 +30°C° 0 mm 2 mps 753 mmHg 46%
14:00 +31°C° 0 mm 2 mps 753 mmHg 44%
15:00 +30°C° 0 mm 2 mps 753 mmHg 46%
16:00 +30°C° 0 mm 2 mps 752 mmHg 48%
17:00 +30°C° 0 mm 1 mps 752 mmHg 50%
18:00 +28°C° 0 mm 1 mps 752 mmHg 56%
19:00 +26°C° 0 mm 1 mps 752 mmHg 62%
20:00 +24°C° 0 mm 1 mps 752 mmHg 69%
21:00 +23°C° 0 mm 1 mps 752 mmHg 73%
22:00 +22°C° 0 mm 1 mps 752 mmHg 77%
23:00 +21°C° 0 mm 1 mps 753 mmHg 81%

Day after tomorrow, 22 June, Tuesday

Time Temperature Precipitation Wind Pressure Humidity
00:00 +20°C° 0 mm 1 mps 752 mmHg 84%
01:00 +20°C° 0 mm 1 mps 752 mmHg 87%
02:00 +19°C° 0 mm 2 mps 752 mmHg 90%
03:00 +20°C° 0 mm 1 mps 753 mmHg 88%
04:00 +21°C° 0 mm 1 mps 753 mmHg 87%
05:00 +22°C° 0 mm 1 mps 753 mmHg 85%
06:00 +24°C° 0 mm 1 mps 753 mmHg 79%
07:00 +25°C° 0 mm 1 mps 753 mmHg 72%
08:00 +27°C° 0 mm 2 mps 753 mmHg 65%
09:00 +29°C° 0 mm 2 mps 753 mmHg 59%
10:00 +30°C° 0 mm 3 mps 753 mmHg 53%
11:00 +31°C° 0 mm 3 mps 753 mmHg 47%
12:00 +33°C° 0 mm 3 mps 753 mmHg 44%
13:00 +34°C° 0 mm 3 mps 752 mmHg 42%
14:00 +34°C° 0 mm 3 mps 752 mmHg 39%
15:00 +34°C° 0 mm 3 mps 752 mmHg 42%
16:00 +33°C° 0 mm 3 mps 752 mmHg 45%
17:00 +32°C° 0 mm 2 mps 752 mmHg 48%
18:00 +30°C° 0 mm 2 mps 752 mmHg 56%
19:00 +27°C° 0 mm 2 mps 752 mmHg 63%
20:00 +25°C° 0 mm 2 mps 752 mmHg 71%
21:00 +24°C° 0 mm 2 mps 752 mmHg 75%
22:00 +23°C° 0 mm 2 mps 752 mmHg 80%
23:00 +23°C° 0 mm 2 mps 752 mmHg 84%

23 June, Wednesday

Time Temperature Precipitation Wind Pressure Humidity
00:00 +21°C° 0 mm 2 mps 752 mmHg 87%
01:00 +21°C° 0 mm 2 mps 753 mmHg 91%
02:00 +20°C° 0 mm 2 mps 753 mmHg 94%
03:00 +21°C° 0 mm 2 mps 753 mmHg 92%
04:00 +23°C° 0 mm 2 mps 753 mmHg 90%
05:00 +24°C° 0 mm 1 mps 753 mmHg 88%
06:00 +25°C° 0 mm 2 mps 753 mmHg 80%
07:00 +27°C° 0 mm 2 mps 753 mmHg 73%
08:00 +29°C° 0 mm 2 mps 753 mmHg 65%
09:00 +30°C° 0 mm 2 mps 753 mmHg 59%
10:00 +31°C° 0 mm 3 mps 753 mmHg 53%
11:00 +34°C° 0 mm 3 mps 753 mmHg 47%
12:00 +34°C° 0 mm 3 mps 753 mmHg 44%
13:00 +35°C° 0 mm 3 mps 753 mmHg 42%
14:00 +35°C° 0 mm 3 mps 753 mmHg 40%
15:00 +35°C° 0 mm 3 mps 753 mmHg 43%
16:00 +34°C° 0 mm 2 mps 753 mmHg 46%
17:00 +34°C° 0 mm 2 mps 753 mmHg 49%
18:00 +31°C° 0 mm 2 mps 752 mmHg 55%
19:00 +29°C° 0 mm 2 mps 752 mmHg 62%
20:00 +27°C° 0 mm 2 mps 752 mmHg 68%
21:00 +26°C° 0 mm 2 mps 752 mmHg 71%
22:00 +25°C° 0 mm 2 mps 752 mmHg 73%
23:00 +24°C° 0 mm 2 mps 753 mmHg 75%

24 June, Thursday

Time Temperature Precipitation Wind Pressure Humidity
00:00 +23°C° 0 mm 2 mps 753 mmHg 77%
01:00 +23°C° 0 mm 2 mps 753 mmHg 80%
02:00 +21°C° 0 mm 2 mps 753 mmHg 82%
03:00 +21°C° 0 mm 2 mps 753 mmHg 81%
04:00 +23°C° 0 mm 2 mps 753 mmHg 81%
05:00 +23°C° 0 mm 1 mps 753 mmHg 80%
06:00 +25°C° 0 mm 1 mps 753 mmHg 73%
07:00 +27°C° 0 mm 1 mps 753 mmHg 65%
08:00 +29°C° 0 mm 2 mps 753 mmHg 58%
09:00 +30°C° 0 mm 2 mps 753 mmHg 53%
10:00 +32°C° 0 mm 2 mps 753 mmHg 48%
11:00 +34°C° 0 mm 2 mps 753 mmHg 43%
12:00 +34°C° 0 mm 2 mps 752 mmHg 41%
13:00 +35°C° 0 mm 2 mps 752 mmHg 39%
14:00 +35°C° 0 mm 2 mps 752 mmHg 36%
15:00 +35°C° 0 mm 2 mps 752 mmHg 40%
16:00 +34°C° 0 mm 2 mps 751 mmHg 43%
17:00 +34°C° 0 mm 2 mps 751 mmHg 46%
18:00 +31°C° 0 mm 2 mps 751 mmHg 54%
19:00 +29°C° 0 mm 2 mps 751 mmHg 61%
20:00 +26°C° 0 mm 2 mps 750 mmHg 69%
21:00 +25°C° 0 mm 2 mps 750 mmHg 70%
22:00 +25°C° 0 mm 2 mps 750 mmHg 72%
23:00 +24°C° 0 mm 2 mps 750 mmHg 74%

25 June, Friday

Time Temperature Precipitation Wind Pressure Humidity
00:00 +23°C° 0 mm 2 mps 750 mmHg 75%
01:00 +23°C° 0 mm 2 mps 750 mmHg 77%
02:00 +21°C° 0 mm 2 mps 750 mmHg 78%
03:00 +23°C° 0 mm 1 mps 750 mmHg 79%
04:00 +24°C° 0 mm 1 mps 750 mmHg 79%
05:00 +24°C° 0 mm 1 mps 750 mmHg 80%
06:00 +26°C° 0 mm 1 mps 750 mmHg 74%
07:00 +28°C° 0 mm 1 mps 750 mmHg 67%
08:00 +30°C° 0 mm 1 mps 750 mmHg 61%
09:00 +31°C° 0 mm 2 mps 750 mmHg 56%
10:00 +34°C° 0 mm 2 mps 750 mmHg 51%
11:00 +35°C° 0 mm 2 mps 750 mmHg 47%
12:00 +35°C° 0 mm 3 mps 749 mmHg 44%
13:00 +36°C° 0 mm 3 mps 749 mmHg 41%
14:00 +36°C° 0 mm 3 mps 749 mmHg 38%
15:00 +34°C° 0.1 mm 3 mps 748 mmHg 45%
16:00 +32°C° 0.1 mm 4 mps 748 mmHg 52%
17:00 +29°C° 0.1 mm 4 mps 747 mmHg 59%
18:00 +27°C° 1.4 mm 4 mps 748 mmHg 70%
19:00 +23°C° 1.4 mm 5 mps 748 mmHg 81%
20:00 +20°C° 1.4 mm 6 mps 749 mmHg 92%
21:00 +20°C° 0.1 mm 5 mps 748 mmHg 91%
22:00 +20°C° 0.1 mm 3 mps 748 mmHg 91%
23:00 +20°C° 0.1 mm 2 mps 747 mmHg 91%
Show more